• In Uzbekistan
  • List of Countries
  • For 7 days
  • Water Temperature
  • Satellite Maps
  • Weather Map
  • Weather Widgets
  • user-avatar
    Login

    Hourly Weather Ordino

    Today, 4 December, Sunday

    Time Temperature Precipitation Wind Pressure Humidity
    00:00 -2°C° 0 mm 2 mps 630 mmHg 82%
    01:00 -1°C° 0 mm 2 mps 630 mmHg 85%
    02:00 -1°C° 0 mm 2 mps 630 mmHg 87%
    03:00 -1°C° 0 mm 2 mps 630 mmHg 90%
    04:00 -1°C° 0 mm 2 mps 630 mmHg 90%
    05:00 -1°C° 0 mm 2 mps 630 mmHg 91%
    06:00 -1°C° 0 mm 2 mps 630 mmHg 92%
    07:00 +1°C° 0 mm 2 mps 630 mmHg 89%
    08:00 +2°C° 0 mm 2 mps 631 mmHg 86%
    09:00 +2°C° 0 mm 3 mps 632 mmHg 83%
    10:00 +4°C° 0 mm 3 mps 632 mmHg 78%
    11:00 +5°C° 0 mm 3 mps 632 mmHg 73%
    12:00 +7°C° 0 mm 3 mps 633 mmHg 68%
    13:00 +5°C° 0 mm 3 mps 632 mmHg 71%
    14:00 +5°C° 0 mm 3 mps 632 mmHg 74%
    15:00 +5°C° 0 mm 2 mps 632 mmHg 77%
    16:00 +4°C° 0 mm 2 mps 632 mmHg 81%
    17:00 +3°C° 0 mm 2 mps 632 mmHg 85%
    18:00 +2°C° 0 mm 2 mps 631 mmHg 88%
    19:00 +2°C° 0 mm 2 mps 632 mmHg 89%
    20:00 +1°C° 0 mm 2 mps 632 mmHg 90%
    21:00 +1°C° 0 mm 2 mps 632 mmHg 90%
    22:00 +1°C° 0 mm 2 mps 632 mmHg 89%
    23:00 +1°C° 0 mm 2 mps 632 mmHg 88%

    Tomorrow, 5 December, Monday

    Time Temperature Precipitation Wind Pressure Humidity
    00:00 +1°C° 0 mm 2 mps 632 mmHg 87%
    01:00 +1°C° 0 mm 2 mps 632 mmHg 87%
    02:00 +1°C° 0 mm 2 mps 632 mmHg 86%
    03:00 +1°C° 0 mm 2 mps 632 mmHg 85%
    04:00 +1°C° 0.1 mm 2 mps 633 mmHg 86%
    05:00 +1°C° 0.1 mm 2 mps 633 mmHg 87%
    06:00 +1°C° 0.1 mm 2 mps 633 mmHg 89%
    07:00 +2°C° 0.1 mm 2 mps 634 mmHg 87%
    08:00 +3°C° 0.1 mm 2 mps 634 mmHg 85%
    09:00 +4°C° 0.1 mm 2 mps 635 mmHg 83%
    10:00 +5°C° 0.1 mm 2 mps 635 mmHg 80%
    11:00 +6°C° 0.1 mm 2 mps 636 mmHg 77%
    12:00 +7°C° 0.1 mm 2 mps 636 mmHg 74%
    13:00 +7°C° 0.1 mm 2 mps 636 mmHg 77%
    14:00 +6°C° 0.1 mm 2 mps 636 mmHg 79%
    15:00 +6°C° 0.1 mm 2 mps 636 mmHg 82%
    16:00 +5°C° 0 mm 1 mps 636 mmHg 86%
    17:00 +4°C° 0 mm 1 mps 635 mmHg 89%
    18:00 +3°C° 0 mm 1 mps 635 mmHg 93%
    19:00 +2°C° 0 mm 1 mps 635 mmHg 93%
    20:00 +2°C° 0 mm 1 mps 636 mmHg 93%
    21:00 +2°C° 0 mm 1 mps 636 mmHg 93%
    22:00 +2°C° 0 mm 1 mps 636 mmHg 93%
    23:00 +1°C° 0 mm 1 mps 636 mmHg 93%

    Day after tomorrow, 6 December, Tuesday

    Time Temperature Precipitation Wind Pressure Humidity
    00:00 +1°C° 0 mm 1 mps 636 mmHg 93%
    01:00 +1°C° 0 mm 1 mps 636 mmHg 93%
    02:00 +1°C° 0 mm 1 mps 636 mmHg 92%
    03:00 +1°C° 0 mm 1 mps 636 mmHg 92%
    04:00 +1°C° 0 mm 1 mps 636 mmHg 92%
    05:00 0°C° 0 mm 1 mps 636 mmHg 91%
    06:00 -1°C° 0 mm 0 mps 636 mmHg 91%
    07:00 +2°C° 0 mm 1 mps 637 mmHg 86%
    08:00 +4°C° 0 mm 1 mps 638 mmHg 80%
    09:00 +6°C° 0 mm 1 mps 639 mmHg 75%
    10:00 +7°C° 0 mm 1 mps 639 mmHg 70%
    11:00 +8°C° 0 mm 1 mps 640 mmHg 64%
    12:00 +9°C° 0 mm 1 mps 640 mmHg 59%
    13:00 +8°C° 0 mm 1 mps 640 mmHg 64%
    14:00 +8°C° 0 mm 1 mps 639 mmHg 68%
    15:00 +7°C° 0 mm 1 mps 639 mmHg 73%
    16:00 +5°C° 0 mm 1 mps 638 mmHg 78%
    17:00 +3°C° 0 mm 1 mps 638 mmHg 83%
    18:00 +2°C° 0 mm 1 mps 637 mmHg 87%
    19:00 +1°C° 0 mm 1 mps 638 mmHg 83%
    20:00 +1°C° 0 mm 1 mps 638 mmHg 79%
    21:00 +1°C° 0 mm 1 mps 638 mmHg 74%
    22:00 +1°C° 0 mm 1 mps 638 mmHg 73%
    23:00 +1°C° 0 mm 1 mps 638 mmHg 72%

    7 December, Wednesday

    Time Temperature Precipitation Wind Pressure Humidity
    00:00 +1°C° 0 mm 1 mps 638 mmHg 71%
    01:00 +1°C° 0 mm 1 mps 637 mmHg 73%
    02:00 0°C° 0 mm 1 mps 637 mmHg 76%
    03:00 -1°C° 0 mm 0 mps 637 mmHg 78%
    04:00 -1°C° 0 mm 0 mps 637 mmHg 78%
    05:00 -1°C° 0 mm 0 mps 637 mmHg 78%
    06:00 -2°C° 0 mm 0 mps 637 mmHg 78%
    07:00 +1°C° 0 mm 1 mps 638 mmHg 72%
    08:00 +4°C° 0 mm 1 mps 639 mmHg 67%
    09:00 +6°C° 0 mm 1 mps 640 mmHg 61%
    10:00 +7°C° 0 mm 1 mps 641 mmHg 58%
    11:00 +8°C° 0 mm 1 mps 641 mmHg 55%
    12:00 +10°C° 0 mm 1 mps 641 mmHg 52%
    13:00 +9°C° 0 mm 1 mps 641 mmHg 59%
    14:00 +8°C° 0 mm 1 mps 641 mmHg 66%
    15:00 +7°C° 0 mm 1 mps 640 mmHg 73%
    16:00 +5°C° 0 mm 1 mps 640 mmHg 78%
    17:00 +3°C° 0 mm 1 mps 639 mmHg 83%
    18:00 +1°C° 0 mm 1 mps 639 mmHg 89%
    19:00 +1°C° 0 mm 1 mps 639 mmHg 87%
    20:00 +1°C° 0 mm 1 mps 639 mmHg 86%
    21:00 +1°C° 0 mm 1 mps 639 mmHg 84%
    22:00 +1°C° 0 mm 1 mps 639 mmHg 84%
    23:00 +1°C° 0 mm 1 mps 639 mmHg 83%

    8 December, Thursday

    Time Temperature Precipitation Wind Pressure Humidity
    00:00 +1°C° 0 mm 1 mps 639 mmHg 83%
    01:00 +1°C° 0 mm 1 mps 639 mmHg 82%
    02:00 +1°C° 0 mm 1 mps 639 mmHg 81%
    03:00 +1°C° 0 mm 1 mps 639 mmHg 80%
    04:00 0°C° 0 mm 1 mps 639 mmHg 80%
    05:00 0°C° 0 mm 1 mps 639 mmHg 80%
    06:00 0°C° 0 mm 1 mps 639 mmHg 79%
    07:00 +2°C° 0 mm 1 mps 640 mmHg 75%
    08:00 +3°C° 0 mm 1 mps 641 mmHg 71%
    09:00 +5°C° 0 mm 1 mps 642 mmHg 66%
    10:00 +6°C° 0 mm 1 mps 642 mmHg 64%
    11:00 +8°C° 0 mm 1 mps 643 mmHg 61%
    12:00 +8°C° 0 mm 2 mps 643 mmHg 58%
    13:00 +7°C° 0 mm 2 mps 642 mmHg 64%
    14:00 +8°C° 0 mm 1 mps 642 mmHg 70%
    15:00 +7°C° 0 mm 1 mps 641 mmHg 75%
    16:00 +5°C° 0 mm 1 mps 641 mmHg 79%
    17:00 +3°C° 0 mm 1 mps 640 mmHg 83%
    18:00 +1°C° 0 mm 1 mps 639 mmHg 87%
    19:00 +1°C° 0 mm 1 mps 640 mmHg 84%
    20:00 +1°C° 0 mm 1 mps 640 mmHg 82%
    21:00 +1°C° 0 mm 1 mps 640 mmHg 79%
    22:00 +1°C° 0 mm 1 mps 640 mmHg 78%
    23:00 +1°C° 0 mm 1 mps 639 mmHg 77%

    9 December, Friday

    Time Temperature Precipitation Wind Pressure Humidity
    00:00 +1°C° 0 mm 1 mps 639 mmHg 76%
    01:00 +1°C° 0 mm 1 mps 639 mmHg 75%
    02:00 +1°C° 0 mm 1 mps 639 mmHg 73%
    03:00 +1°C° 0 mm 1 mps 639 mmHg 72%
    04:00 +1°C° 0 mm 1 mps 639 mmHg 71%
    05:00 +1°C° 0 mm 1 mps 639 mmHg 69%
    06:00 +1°C° 0 mm 1 mps 638 mmHg 68%
    07:00 +3°C° 0 mm 1 mps 639 mmHg 65%
    08:00 +4°C° 0 mm 1 mps 640 mmHg 61%
    09:00 +6°C° 0 mm 1 mps 641 mmHg 57%
    10:00 +7°C° 0 mm 1 mps 641 mmHg 55%
    11:00 +9°C° 0 mm 1 mps 641 mmHg 53%
    12:00 +10°C° 0 mm 1 mps 642 mmHg 51%
    13:00 +9°C° 0 mm 1 mps 641 mmHg 57%
    14:00 +8°C° 0 mm 1 mps 640 mmHg 63%
    15:00 +7°C° 0 mm 1 mps 640 mmHg 69%
    16:00 +6°C° 0 mm 1 mps 639 mmHg 73%
    17:00 +4°C° 0 mm 1 mps 638 mmHg 77%
    18:00 +2°C° 0 mm 1 mps 637 mmHg 81%
    19:00 +2°C° 0 mm 1 mps 637 mmHg 79%
    20:00 +2°C° 0 mm 1 mps 637 mmHg 77%
    21:00 +2°C° 0 mm 1 mps 637 mmHg 75%
    22:00 +2°C° 0 mm 1 mps 637 mmHg 72%
    23:00 +2°C° 0 mm 1 mps 637 mmHg 69%
    Show more